Location: Rancho Del Sol Observatory
(38.7214°N, 120.6350°W)
Time: 11:36:11
(UTC-08:00)

Vanguard 1 - Visible Passes

Search period start: 22 January 2020 00:00
Search period end: 01 February 2020 00:00
Orbit: 651 x 3832 km, 34.2° (Epoch: 22 January)

Date Brightness Start Highest point End Pass type
(mag) Time Alt. Az. Time Alt. Az. Time Alt. Az.
22 Jan 10.2 19:42:19 10° W 19:47:18 58° S 19:47:18 58° S visible
23 Jan 10.1 17:44:07 10° WSW 17:48:20 45° SSE 17:53:42 10° E visible
23 Jan 10.6 20:03:09 10° W 20:07:10 47° SW 20:07:10 47° SW visible
24 Jan 9.9 18:04:52 10° WSW 18:09:11 51° S 18:14:19 12° E visible
24 Jan 11.2 20:24:02 10° W 20:27:03 33° WSW 20:27:03 33° WSW visible
25 Jan 9.9 18:25:41 10° WSW 18:30:03 53° S 18:34:13 18° ESE visible
25 Jan 11.8 20:44:59 10° W 20:46:57 22° WSW 20:46:57 22° WSW visible
26 Jan 10.0 18:46:32 10° W 18:50:56 51° S 18:54:09 24° ESE visible
26 Jan 12.4 21:06:03 10° WSW 21:06:52 14° WSW 21:06:52 14° WSW visible
27 Jan 10.3 19:07:24 10° W 19:11:49 46° S 19:14:06 30° SE visible
28 Jan 10.6 19:28:20 10° W 19:32:43 38° SSW 19:34:05 33° SSE visible
29 Jan 11.0 19:49:22 10° WSW 19:53:37 31° SSW 19:54:06 30° S visible
30 Jan 10.1 17:50:28 10° W 17:54:42 46° S 17:59:34 10° ESE visible
30 Jan 11.5 20:10:34 10° WSW 20:14:11 23° SSW 20:14:11 23° SSW visible
31 Jan 10.3 18:11:25 10° W 18:15:33 40° S 18:20:25 10° ESE visible
31 Jan 12.0 20:32:08 10° WSW 20:34:17 16° SW 20:34:17 16° SW visible
